H1 CPF 2 NER 2022 2 6 9 037 01 glonass121 H2 1000702 9121 36401 2022 2 6 0 0 0 2022 2 9 23 45 0 900 1 1 0 0 0 1 H9 10 0 59616 0.00000 0 2827658.921 -12343847.822 22114872.412 10 0 59616 900.00000 0 4584481.673 -10179679.499 22916144.580 10 0 59616 1800.00000 0 6550262.910 -8105623.186 23271503.614 10 0 59616 2700.00000 0 8679738.621 -6177796.729 23174431.461 10 0 59616 3600.00000 0 10918437.960 -4443478.119 22627213.295 10 0 59616 4500.00000 0 13204792.080 -2939323.918 21640862.374 10 0 59616 5400.00000 0 15472547.552 -1690050.885 20234877.241 10 0 59616 6300.00000 0 17653383.379 -707632.220 18436838.013 10 0 59616 7200.00000 0 19679622.780 8961.781 16281851.330 10 0 59616 8100.00000 0 21486927.844 473471.607 13811855.926 10 0 59616 9000.00000 0 23016866.438 711520.564 11074802.958 10 0 59616 9900.00000 0 24219246.468 759288.323 8123727.211 10 0 59616 10800.00000 0 25054122.568 661743.569 5015726.863 10 0 59616 11700.00000 0 25493393.977 470510.942 1810870.772 10 0 59616 12600.00000 0 25521929.033 241462.046 -1428946.564 10 0 59616 13500.00000 0 25138171.204 32131.229 -4641181.680 10 0 59616 14400.00000 0 24354202.451 -100936.321 -7763829.308 10 0 59616 15300.00000 0 23195261.742 -104794.049 -10736598.749 10 0 59616 16200.00000 0 21698738.483 67447.244 -13502058.517 10 0 59616 17100.00000 0 19912681.747 454413.629 -16006728.900 10 0 59616 18000.00000 0 17893885.816 1084607.260 -18202102.761 10 0 59616 18900.00000 0 15705629.604 1974968.811 -20045576.228 10 0 59616 19800.00000 0 13415161.679 3129924.405 -21501272.189 10 0 59616 20700.00000 0 11091033.190 4540958.830 -22540741.081 10 0 59616 21600.00000 0 8800387.464 6186735.634 -23143525.381 10 0 59616 22500.00000 0 6606317.270 8033762.434 -23297576.213 10 0 59616 23400.00000 0 4565398.682 10037577.387 -22999512.717 10 0 59616 24300.00000 0 2725503.801 12144411.104 -22254717.415 10 0 59616 25200.00000 0 1123983.812 14293258.208 -21077263.466 10 0 59616 26100.00000 0 -213700.737 16418274.927 -19489672.720 10 0 59616 27000.00000 0 -1274843.720 18451404.653 -17522506.679 10 0 59616 27900.00000 0 -2059813.346 20325122.684 -15213795.794 10 0 59616 28800.00000 0 -2581813.006 21975185.086 -12608316.165 10 0 59616 29700.00000 0 -2866091.672 23343265.252 -9756726.161 10 0 59616 30600.00000 0 -2948636.315 24379365.438 -6714578.959 10 0 59616 31500.00000 0 -2874401.403 25043899.162 -3541230.419 10 0 59616 32400.00000 0 -2695151.265 25309353.979 -298664.447 10 0 59616 33300.00000 0 -2467008.400 25161461.822 2949739.517 10 0 59616 34200.00000 0 -2247814.167 24599825.345 6140470.418 10 0 59616 35100.00000 0 -2094416.893 23637972.482 9211153.548 10 0 59616 36000.00000 0 -2060005.756 22302836.479 12101794.934 10 0 59616 36900.00000 0 -2191606.711 20633683.947 14755975.111 10 0 59616 37800.00000 0 -2527849.415 18680537.623 17121966.718 10 0 59616 38700.00000 0 -3097101.800 16502162.352 19153752.529 10 0 59616 39600.00000 0 -3916052.429 14163701.524 20811923.090 10 0 59616 40500.00000 0 -4988800.801 11734065.670 22064436.530 10 0 59616 41400.00000 0 -6306493.459 9283184.685 22887226.472 10 0 59616 42300.00000 0 -7847519.921 6879240.180 23264647.671 10 0 59616 43200.00000 0 -9578258.537 4585993.987 23189752.709 10 0 59616 44100.00000 0 -11454339.129 2460323.729 22664396.702 10 0 59616 45000.00000 0 -13422367.685 550066.659 21699170.400 10 0 59616 45900.00000 0 -15422039.597 -1107741.041 20313165.365 10 0 59616 46800.00000 0 -17388552.236 -2488159.399 18533577.881 10 0 59616 47700.00000 0 -19255215.895 -3579123.992 16395160.996 10 0 59616 48600.00000 0 -20956154.612 -4381680.900 13939536.601 10 0 59616 49500.00000 0 -22428985.354 -4909671.192 11214381.541 10 0 59616 50400.00000 0 -23617365.381 -5188881.325 8272503.825 10 0 59616 51300.00000 0 -24473303.555 -5255697.579 5170826.501 10 0 59616 52200.00000 0 -24959141.287 -5155322.608 1969298.121 10 0 59616 53100.00000 0 -25049122.465 -4939629.678 -1270250.125 10 0 59616 54000.00000 0 -24730488.599 -4664744.672 -4485279.945 10 0 59616 54900.00000 0 -24004054.657 -4388456.703 -7613733.026 10 0 59616 55800.00000 0 -22884242.143 -4167564.943 -10595208.373 10 0 59616 56700.00000 0 -21398567.837 -4055271.740 -13372108.968 10 0 59616 57600.00000 0 -19586608.563 -4098730.230 -15890737.309 10 0 59616 58500.00000 0 -17498483.524 -4336848.416 -18102320.166 10 0 59616 59400.00000 0 -15192915.205 -4798441.479 -19963944.089 10 0 59616 60300.00000 0 -12734946.947 -5500810.191 -21439384.537 10 0 59616 61200.00000 0 -10193409.487 -6448806.188 -22499813.038 10 0 59616 62100.00000 0 -7638239.168 -7634425.353 -23124368.677 10 0 59616 63000.00000 0 -5137757.015 -9036949.181 -23300582.241 10 0 59616 63900.00000 0 -2756020.191 -10623631.574 -23024643.532 10 0 59616 64800.00000 0 -550354.945 -12350906.037 -22301504.952 10 0 59616 65700.00000 0 1430826.463 -14166066.441 -21144817.107 10 0 59616 66600.00000 0 3149833.282 -16009354.231 -19576695.184 10 0 59616 67500.00000 0 4581051.674 -17816367.252 -17627318.029 10 0 59616 68400.00000 0 5711789.738 -19520690.867 -15334365.220 10 0 59616 69300.00000 0 6542574.965 -21056641.416 -12742300.997 10 0 59616 70200.00000 0 7086890.061 -22362006.216 -9901517.402 10 0 59616 71100.00000 0 7370357.122 -23380663.197 -6867352.491 10 0 59616 72000.00000 0 7429404.041 -24064967.408 -3699002.824 10 0 59616 72900.00000 0 7309469.896 -24377800.944 -458352.320 10 0 59616 73800.00000 0 7062826.550 -24294196.782 2791258.057 10 0 59616 74700.00000 0 6746110.849 -23802465.332 5986293.342 10 0 59616 75600.00000 0 6417674.884 -22904774.073 9064293.012 10 0 59616 76500.00000 0 6134869.879 -21617154.641 11965117.246 10 0 59616 77400.00000 0 5951382.163 -19968936.908 14632143.833 10 0 59616 78300.00000 0 5914737.149 -18001634.703 17013390.142 10 0 59616 79200.00000 0 6064079.458 -15767331.670 19062536.589 10 0 59616 80100.00000 0 6428324.687 -13326637.310 20739830.657 10 0 59616 81000.00000 0 7024761.612 -10746301.325 22012853.838 10 0 59616 81900.00000 0 7858163.528 -8096588.358 22857137.279 10 0 59616 82800.00000 0 8920445.080 -5448524.701 23256615.542 10 0 59616 83700.00000 0 10190877.322 -2871132.794 23203911.647 10 0 59616 84600.00000 0 11636849.961 -428768.782 22700450.176 10 0 59616 85500.00000 0 13215146.664 1821326.960 21756398.658 10 0 59617 0.00000 0 14873678.015 3831166.327 20390440.926 10 0 59617 900.00000 0 16553599.043 5563752.013 18629388.111 10 0 59617 1800.00000 0 18191719.692 6994346.531 16507638.561 10 0 59617 2700.00000 0 19723110.327 8111226.344 14066495.934 10 0 59617 3600.00000 0 21083791.752 8915890.741 11353361.209 10 0 59617 4500.00000 0 22213399.371 9422721.388 8420813.860 10 0 59617 5400.00000 0 23057711.691 9658109.592 5325599.840 10 0 59617 6300.00000 0 23570939.396 9659090.029 2127545.222 10 0 59617 7200.00000 0 23717681.270 9471539.486 -1111584.475 10 0 59617 8100.00000 0 23474466.955 9148016.673 -4329258.629 10 0 59617 9000.00000 0 22830823.404 8745333.428 -7463368.449 10 0 59617 9900.00000 0 21789821.176 8321958.329 -10453405.197 10 0 59617 10800.00000 0 20368077.765 7935360.426 -13241608.778 10 0 59617 11700.00000 0 18595216.979 7639403.163 -15774066.219 10 0 59617 12600.00000 0 16512805.423 7481896.570 -18001740.336 10 0 59617 13500.00000 0 14172808.135 7502409.538 -19881410.050 10 0 59617 14400.00000 0 11635624.958 7730433.682 -21376505.163 10 0 59617 15300.00000 0 8967786.406 8183976.265 -22457819.886 10 0 59617 16200.00000 0 6239401.818 8868642.496 -23104091.328 10 0 59617 17100.00000 0 3521463.065 9777247.848 -23302431.142 10 0 59617 18000.00000 0 883113.682 10889979.452 -23048600.741 10 0 59617 18900.00000 0 -1611004.659 12175103.144 -22347123.033 10 0 59617 19800.00000 0 -3903218.816 13590190.056 -21211226.323 10 0 59617 20700.00000 0 -5945001.113 15083814.635 -19662618.960 10 0 59617 21600.00000 0 -7698765.107 16597655.720 -17731096.522 10 0 59617 22500.00000 0 -9139203.769 18068914.544 -15453986.657 10 0 59617 23400.00000 0 -10254112.384 19432949.023 -12875440.261 10 0 59617 24300.00000 0 -11044659.919 20626013.467 -10045581.189 10 0 59617 25200.00000 0 -11525096.026 21587987.132 -7019530.164 10 0 59617 26100.00000 0 -11721905.063 22264974.428 -3856321.962 10 0 59617 27000.00000 0 -11672442.745 22611664.289 -617737.782 10 0 59617 27900.00000 0 -11423113.830 22593345.939 2632922.792 10 0 59617 28800.00000 0 -11027169.599 22187492.868 5832103.913 10 0 59617 29700.00000 0 -10542220.945 21384845.506 8917262.349 10 0 59617 30600.00000 0 -10027575.453 20189944.974 11828115.525 10 0 59617 31500.00000 0 -9541514.571 18621094.516 14507841.528 10 0 59617 32400.00000 0 -9138629.423 16709750.266 16904205.382 10 0 59617 33300.00000 0 -8867330.712 14499367.987 18970587.895 10 0 59617 34200.00000 0 -8767640.034 12043755.959 20666896.016 10 0 59617 35100.00000 0 -8869356.957 9405005.252 21960336.869 10 0 59617 36000.00000 0 -9190679.287 6651086.170 22826041.075 10 0 59617 36900.00000 0 -9737333.769 3853213.325 23247524.594 10 0 59617 37800.00000 0 -10502252.184 1083090.588 23216982.075 10 0 59617 38700.00000 0 -11465804.296 -1589848.869 22735408.315 10 0 59617 39600.00000 0 -12596575.470 -4101092.907 21812547.895 10 0 59617 40500.00000 0 -13852654.009 -6393482.455 20466676.388 10 0 59617 41400.00000 0 -15183372.299 -8419326.512 18724219.513 10 0 59617 42300.00000 0 -16531427.343 -10142115.197 16619219.420 10 0 59617 43200.00000 0 -17835291.181 -11537763.252 14192659.782 10 0 59617 44100.00000 0 -19031810.263 -12595335.979 11491663.504 10 0 59617 45000.00000 0 -20058885.618 -13317230.982 8568578.938 10 0 59617 45900.00000 0 -20858122.904 -13718811.438 5479972.043 10 0 59617 46800.00000 0 -21377343.024 -13827508.803 2285543.266 10 0 59617 47700.00000 0 -21572850.025 -13681434.330 -953010.871 10 0 59617 48600.00000 0 -21411363.093 -13327558.499 -4173170.861 10 0 59617 49500.00000 0 -20871533.190 -12819534.776 -7312780.951 10 0 59617 50400.00000 0 -19944981.812 -12215258.332 -10311228.203 10 0 59617 51300.00000 0 -18636818.622 -11574260.971 -13110592.936 10 0 59617 52200.00000 0 -16965615.738 -10955050.066 -15656750.076 10 0 59617 53100.00000 0 -14962838.401 -10412501.593 -17900401.619 10 0 59617 54000.00000 0 -12671753.619 -9995415.308 -19798021.655 10 0 59617 54900.00000 0 -10145859.469 -9744333.709 -21312696.671 10 0 59617 55800.00000 0 -7446897.360 -9689716.035 -22414845.356 10 0 59617 56700.00000 0 -4642526.587 -9850544.424 -23082804.014 10 0 59617 57600.00000 0 -1803754.625 -10233422.048 -23303265.697 10 0 59617 58500.00000 0 997772.777 -10832203.220 -23071563.328 10 0 59617 59400.00000 0 3692511.281 -11628173.733 -22391789.655 10 0 59617 60300.00000 0 6215674.931 -12590777.060 -21276749.503 10 0 59617 61200.00000 0 8509700.261 -13678859.093 -19747742.759 10 0 59617 62100.00000 0 10526414.543 -14842382.107 -17834179.730 10 0 59617 63000.00000 0 12228816.651 -16024538.227 -15573033.779 10 0 59617 63900.00000 0 13592394.377 -17164174.881 -13008139.801 10 0 59617 64800.00000 0 14605921.248 -18198430.521 -10189350.529 10 0 59617 65700.00000 0 15271697.639 -19065468.729 -7171566.187 10 0 59617 66600.00000 0 15605224.673 -19707193.577 -4013656.416 10 0 59617 67500.00000 0 15634324.018 -20071828.970 -777296.247 10 0 59617 68400.00000 0 15397740.949 -20116249.865 2474259.572 10 0 59617 69300.00000 0 14943290.863 -19807963.543 5677437.676 10 0 59617 70200.00000 0 14325629.686 -19126654.178 8769615.279 10 0 59617 71100.00000 0 13603745.297 -18065222.941 11690369.929 10 0 59617 72000.00000 0 12838279.312 -16630278.140 14382682.518 10 0 59617 72900.00000 0 12088795.810 -14842054.029 16794067.805 10 0 59617 73800.00000 0 11411115.474 -12733761.999 18877608.635 10 0 59617 74700.00000 0 10854830.152 -10350402.600 20592872.590 10 0 59617 75600.00000 0 10461104.225 -7747089.973 21906693.137 10 0 59617 76500.00000 0 10260855.964 -4986960.841 22793800.636 10 0 59617 77400.00000 0 10273394.919 -2138757.527 23237292.308 10 0 59617 78300.00000 0 10505571.192 725812.620 23228933.926 10 0 59617 79200.00000 0 10951470.143 3534830.468 22769289.680 10 0 59617 80100.00000 0 11592662.761 6218916.299 21867680.119 10 0 59617 81000.00000 0 12398998.428 8713865.489 20541971.410 10 0 59617 81900.00000 0 13329904.327 10963060.958 18818202.154 10 0 59617 82800.00000 0 14336134.885 12919564.668 16730056.824 10 0 59617 83700.00000 0 15361896.498 14547804.460 14318197.385 10 0 59617 84600.00000 0 16347257.787 15824789.644 11629466.832 10 0 59617 85500.00000 0 17230744.398 16740808.258 8715980.438 10 0 59618 0.00000 0 17952010.288 17299580.304 5634122.355 10 0 59618 900.00000 0 18454475.141 17517863.682 2443464.633 10 0 59618 1800.00000 0 18687818.019 17424530.765 -794367.237 10 0 59618 2700.00000 0 18610225.708 17059156.626 -4016867.242 10 0 59618 3600.00000 0 18190302.031 16470177.665 -7161835.034 10 0 59618 4500.00000 0 17408559.645 15712697.855 -10168555.780 10 0 59618 5400.00000 0 16258432.301 14846033.488 -12978952.404 10 0 59618 6300.00000 0 14746764.881 13931097.880 -15538689.759 10 0 59618 7200.00000 0 12893759.641 13027733.984 -17798210.878 10 0 59618 8100.00000 0 10732378.979 12192105.066 -19713686.707 10 0 59618 9000.00000 0 8307226.885 11474251.421 -21247861.942 10 0 59618 9900.00000 0 5672952.583 10915914.692 -22370781.113 10 0 59618 10800.00000 0 2892239.235 10548720.788 -23060380.931 10 0 59618 11700.00000 0 33457.802 10392798.179 -23302936.869 10 0 59618 12600.00000 0 -2831919.561 10455890.910 -23093354.145 10 0 59618 13500.00000 0 -5632041.867 10733005.636 -22435295.825 10 0 59618 14400.00000 0 -8297426.161 11206610.132 -21341143.358 10 0 59618 15300.00000 0 -10763615.609 11847377.835 -19831787.869 10 0 59618 16200.00000 0 -12973638.282 12615449.939 -17936253.650 10 0 59618 17100.00000 0 -14880163.333 13462164.418 -15691158.640 10 0 59618 18000.00000 0 -16447262.994 14332180.874 -13140020.217 10 0 59618 18900.00000 0 -17651704.794 15165912.454 -10332418.176 10 0 59618 19800.00000 0 -18483717.845 15902161.961 -7323030.178 10 0 59618 20700.00000 0 -18947199.161 16480849.442 -4170558.475 10 0 59618 21600.00000 0 -19059350.177 16845713.720 -936569.528 10 0 59618 22500.00000 0 -18849758.358 16946870.606 2315729.286 10 0 59618 23400.00000 0 -18358963.163 16743116.252 5522749.713 10 0 59618 24300.00000 0 -17636568.483 16203874.905 8621792.144 10 0 59618 25200.00000 0 -16738983.639 15310705.748 11552297.022 10 0 59618 26100.00000 0 -15726891.397 14058302.955 14257050.834 10 0 59618 27000.00000 0 -14662553.217 12454945.401 16683320.824 10 0 59618 27900.00000 0 -13607068.704 10522376.675 18783894.494 10 0 59618 28800.00000 0 -12617707.599 8295121.024 20518002.517 10 0 59618 29700.00000 0 -11745428.699 5819265.207 21852106.901 10 0 59618 30600.00000 0 -11032691.129 3150759.024 22760539.658 10 0 59618 31500.00000 0 -10511649.921 353307.579 23225980.829 10 0 59618 32400.00000 0 -10202810.538 -2504055.048 23239768.493 10 0 59618 33300.00000 0 -10114196.759 -5349608.359 22802037.024 10 0 59618 34200.00000 0 -10241064.175 -8111693.603 21921683.310 10 0 59618 35100.00000 0 -10566168.245 -10721453.616 20616164.053 10 0 59618 36000.00000 0 -11060572.660 -13115451.673 18911130.246 10 0 59618 36900.00000 0 -11684961.411 -15238062.531 16839907.767 10 0 59618 37800.00000 0 -12391397.342 -17043539.016 14442835.558 10 0 59618 38700.00000 0 -13125452.058 -18497671.472 11766475.010 10 0 59618 39600.00000 0 -13828617.162 -19578974.334 8862706.284 10 0 59618 40500.00000 0 -14440895.828 -20279353.764 5787728.841 10 0 59618 41400.00000 0 -14903466.749 -20604231.500 2600984.873 10 0 59618 42300.00000 0 -15161309.978 -20572122.088 -635974.509 10 0 59618 43200.00000 0 -15165685.982 -20213682.903 -3860659.769 10 0 59618 44100.00000 0 -14876365.450 -19570277.458 -7010829.136 10 0 59618 45000.00000 0 -14263517.594 -18692112.149 -10025669.180 10 0 59618 45900.00000 0 -13309178.540 -17636023.698 -12846948.821 10 0 59618 46800.00000 0 -12008238.361 -16463008.566 -15420126.235 10 0 59618 47700.00000 0 -10368904.694 -15235596.079 -17695388.801 10 0 59618 48600.00000 0 -8412621.958 -14015173.386 -19628607.413 10 0 59618 49500.00000 0 -6173447.045 -12859372.466 -21182187.735 10 0 59618 50400.00000 0 -3696904.493 -11819627.221 -22325802.462 10 0 59618 51300.00000 0 -1038365.253 -10939002.073 -23036990.502 10 0 59618 52200.00000 0 1738987.294 -10250382.888 -23301610.967 10 0 59618 53100.00000 0 4566522.945 -9775106.655 -23114142.008 10 0 59618 54000.00000 0 7372766.839 -9522088.776 -22477817.082 10 0 59618 54900.00000 0 10086132.450 -9487486.563 -21404593.822 10 0 59618 55800.00000 0 12637673.240 -9654915.575 -19914953.661 10 0 59618 56700.00000 0 14963739.065 -9996212.215 -18037533.498 10 0 59618 57600.00000 0 17008426.224 -10472712.963 -15808594.013 10 0 59618 58500.00000 0 18725717.543 -11036998.209 -13271332.794 10 0 59618 59400.00000 0 20081221.201 -11635028.285 -10475053.973 10 0 59618 60300.00000 0 21053433.269 -12208581.638 -7474209.524 10 0 59618 61200.00000 0 21634468.770 -12697891.218 -4327330.819 10 0 59618 62100.00000 0 21830228.815 -13044365.644 -1095872.004 10 0 59618 63000.00000 0 21659995.714 -13193277.274 2157010.803 10 0 59618 63900.00000 0 21155472.937 -13096300.133 5367718.336 10 0 59618 64800.00000 0 20359311.305 -12713786.818 8473477.880 10 0 59618 65700.00000 0 19323185.388 -12016684.777 11413596.204 10 0 59618 66600.00000 0 18105503.876 -10988008.213 14130668.421 10 0 59618 67500.00000 0 16768853.618 -9623801.500 16571716.824 10 0 59618 68400.00000 0 15377288.300 -7933552.432 18689235.629 10 0 59618 69300.00000 0 13993578.946 -5940037.870 20442120.132 10 0 59618 70200.00000 0 12676544.320 -3678609.037 21796461.904 10 0 59618 71100.00000 0 11478574.884 -1195947.796 22726195.133 10 0 59618 72000.00000 0 10443454.717 1451652.193 23213582.745 10 0 59618 72900.00000 0 9604572.020 4200405.877 23249534.765 10 0 59618 73800.00000 0 8983591.468 6981468.857 22833754.985 10 0 59618 74700.00000 0 8589641.432 9723578.719 21974715.522 10 0 59618 75600.00000 0 8419046.977 12355795.588 20689462.205 10 0 59618 76500.00000 0 8455616.409 14810228.560 19003256.755 10 0 59618 77400.00000 0 8671466.149 17024636.070 16949064.595 10 0 59618 78300.00000 0 9028346.488 18944794.307 14566899.600 10 0 59618 79200.00000 0 9479410.461 20526537.985 11903039.376 10 0 59618 80100.00000 0 9971350.251 21737391.539 9009126.661 10 0 59618 81000.00000 0 10446810.905 22557726.025 5941174.083 10 0 59618 81900.00000 0 10846980.241 22981396.484 2758490.900 10 0 59618 82800.00000 0 11114247.090 23015835.617 -477448.451 10 0 59618 83700.00000 0 11194817.504 22681601.793 -3704173.493 10 0 59618 84600.00000 0 11041180.561 22011401.368 -6859403.552 10 0 59618 85500.00000 0 10614321.632 21048626.440 -9882229.001 10 0 59619 0.00000 0 9885591.339 19845468.820 -12714266.742 10 0 59619 900.00000 0 8838151.812 18460687.197 -15300770.811 10 0 59619 1800.00000 0 7467940.378 16957120.826 -17591674.471 10 0 59619 2700.00000 0 5784107.845 15399049.577 -19542550.160 10 0 59619 3600.00000 0 3808911.866 13849510.229 -21115465.904 10 0 59619 4500.00000 0 1577066.701 12367678.802 -22279723.764 10 0 59619 5400.00000 0 -865426.929 11006427.073 -23012465.850 10 0 59619 6300.00000 0 -3462926.988 9810154.659 -23299135.691 10 0 59619 7200.00000 0 -6152205.526 8812987.346 -23133784.878 10 0 59619 8100.00000 0 -8864832.419 8037417.784 -22519217.432 10 0 59619 9000.00000 0 -11529791.272 7493446.858 -21466966.954 10 0 59619 9900.00000 0 -14076220.644 7178263.742 -19997104.547 10 0 59619 10800.00000 0 -16436167.672 7076480.249 -18137878.649 10 0 59619 11700.00000 0 -18547239.345 7160911.890 -15925191.226 10 0 59619 12600.00000 0 -20355039.798 7393874.694 -13401918.300 10 0 59619 13500.00000 0 -21815290.056 7728944.421 -10617086.316 10 0 59619 14400.00000 0 -22895539.173 8113104.408 -7624919.352 10 0 59619 15300.00000 0 -23576392.542 8489190.761 -4483775.587 10 0 59619 16200.00000 0 -23852203.504 8798529.936 -1254994.448 10 0 59619 17100.00000 0 -23731197.489 8983654.648 1998321.659 10 0 59619 18000.00000 0 -23235022.497 8990979.984 5212564.986 10 0 59619 18900.00000 0 -22397745.011 8773322.968 8324892.284 10 0 59619 19800.00000 0 -21264334.767 8292155.384 11274479.259 10 0 59619 20700.00000 0 -19888704.305 7519491.515 14003732.252 10 0 59619 21600.00000 0 -18331388.669 6439328.506 16459431.132 10 0 59619 22500.00000 0 -16656966.023 5048576.958 18593779.219 10 0 59619 23400.00000 0 -14931330.798 3357441.937 20365338.590 10 0 59619 24300.00000 0 -13218936.615 1389238.601 21739832.253 10 0 59619 25200.00000 0 -11580126.593 -820348.807 22690798.100 10 0 59619 26100.00000 0 -10068663.919 -3224531.953 23200083.096 10 0 59619 27000.00000 0 -8729565.902 -5767152.749 23258169.983 10 0 59619 27900.00000 0 -7597330.789 -8384812.966 22864332.371 10 0 59619 28800.00000 0 -6694629.254 -11009308.947 22026617.655 10 0 59619 29700.00000 0 -6031512.161 -13570269.344 20761660.499 10 0 59619 30600.00000 0 -5605164.223 -15997886.176 19094332.739 10 0 59619 31500.00000 0 -5400210.253 -18225626.347 17057238.419 10 0 59619 32400.00000 0 -5389557.768 -20192812.522 14690065.148 10 0 59619 33300.00000 0 -5535737.785 -21846968.203 12038805.275 10 0 59619 34200.00000 0 -5792685.464 -23145832.048 9154862.407 10 0 59619 35100.00000 0 -6107884.594 -24058960.463 6094060.418 10 0 59619 36000.00000 0 -6424785.469 -24568854.490 2915573.526 10 0 59619 36900.00000 0 -6685394.961 -24671566.486 -319202.795 10 0 59619 37800.00000 0 -6832930.898 -24376763.278 -3547819.584 10 0 59619 38700.00000 0 -6814430.553 -23707244.441 -6707959.893 10 0 59619 39600.00000 0 -6583205.085 -22697936.329 -9738620.711 10 0 59619 40500.00000 0 -6101038.084 -21394403.592 -12581270.354 10 0 59619 41400.00000 0 -5340036.736 -19850939.317 -15180960.736 10 0 59619 42300.00000 0 -4284058.130 -18128311.962 -17487374.588 10 0 59619 43200.00000 0 -2929650.241 -16291261.091 -19455788.839 10 0 59619 44100.00000 0 -1286466.631 -14405844.258 -21047936.621 10 0 59619 45000.00000 0 622864.893 -12536743.618 -22232751.788 10 0 59619 45900.00000 0 2763417.344 -10744642.859 -22986981.678 10 0 59619 46800.00000 0 5089158.888 -9083782.553 -23295655.804 10 0 59619 47700.00000 0 7544620.546 -7599795.418 -23152400.280 10 0 59619 48600.00000 0 10066971.578 -6327911.971 -22559590.295 10 0 59619 49500.00000 0 12588419.571 -5291612.398 -21528335.551 10 0 59619 50400.00000 0 15038837.771 -4501782.550 -20078296.496 10 0 59619 51300.00000 0 17348511.917 -3956411.280 -18237332.332 10 0 59619 52200.00000 0 19450892.596 -3640843.842 -16040985.052 10 0 59619 53100.00000 0 21285237.626 -3528582.626 -13531807.350 10 0 59619 54000.00000 0 22799032.532 -3582602.946 -10758545.716 10 0 59619 54900.00000 0 23950085.573 -3757129.127 -7775193.554 10 0 59619 55800.00000 0 24708206.785 -3999795.747 -4639932.626 10 0 59619 56700.00000 0 25056397.913 -4254101.524 -1413984.044 10 0 59619 57600.00000 0 24991500.900 -4462049.906 1839607.336 10 0 59619 58500.00000 0 24524275.995 -4566861.713 5057229.200 10 0 59619 59400.00000 0 23678905.525 -4515641.581 8175971.625 10 0 59619 60300.00000 0 22491944.546 -4261881.722 11134882.898 10 0 59619 61200.00000 0 21010763.975 -3767693.685 13876183.923 10 0 59619 62100.00000 0 19291553.921 -3005670.882 16346415.067 10 0 59619 63000.00000 0 17396974.008 -1960301.087 18497491.232 10 0 59619 63900.00000 0 15393552.441 -628868.206 20287643.274 10 0 59619 64800.00000 0 13348945.791 978194.913 21682227.159 10 0 59619 65700.00000 0 11329176.599 2837516.834 22654385.522 10 0 59619 66600.00000 0 9395965.922 4913550.887 23185549.931 10 0 59619 67500.00000 0 7604272.680 7159857.886 23265775.939 10 0 59619 68400.00000 0 6000141.807 9520852.801 22893906.619 10 0 59619 69300.00000 0 4618949.242 11933940.805 22077563.833 10 0 59619 70200.00000 0 3484114.175 14331952.505 20832969.861 10 0 59619 71100.00000 0 2606328.863 16645776.411 19184605.078 10 0 59619 72000.00000 0 1983334.424 18807079.199 17164710.250 10 0 59619 72900.00000 0 1600248.208 20751001.549 14812644.565 10 0 59619 73800.00000 0 1430425.594 22418719.021 12174112.750 10 0 59619 74700.00000 0 1436817.381 23759763.463 9300276.748 10 0 59619 75600.00000 0 1573763.804 24734010.802 6246769.015 10 0 59619 76500.00000 0 1789148.831 25313254.962 3072625.967 10 0 59619 77400.00000 0 2026824.004 25482304.654 -160838.697 10 0 59619 78300.00000 0 2229200.523 25239559.331 -3391200.364 10 0 59619 79200.00000 0 2339901.676 24597041.662 -6556108.568 10 0 59619 80100.00000 0 2306365.510 23579885.876 -9594469.547 10 0 59619 81000.00000 0 2082289.794 22225303.234 -12447605.234 10 0 59619 81900.00000 0 1629817.648 20581066.913 -15060368.153 10 0 59619 82800.00000 0 921372.762 18703578.011 -17382192.206 10 0 59619 83700.00000 0 -58932.932 16655591.263 -19368060.541 10 0 59619 84600.00000 0 -1314379.106 14503692.892 -20979372.880 10 0 59619 85500.00000 0 -2835244.753 12315633.358 -22184696.107 99